This is the latest recevied weather packets stored in our database for station/object N1IJV-10. If no packets are shown the sender has not sent any weather packets the latest 10 day(s).
| Time | Temp. | Humidity | Pressure | Rain* | Wind** | Luminosity | Snow |
|---|---|---|---|---|---|---|---|
| 1778180504 | 13.89° C | 57% | 1011.1 hPa | 0 mm | - | 219 W/m² | - |
| 1778180202 | 13.33° C | 57% | 1011.2 hPa | 0 mm | - | 242 W/m² | - |
| 1778179899 | 13.89° C | 57% | 1011.2 hPa | 0 mm | - | 99 W/m² | - |
| 1778179596 | 15° C | 56% | 1011.1 hPa | 0 mm | - | 187 W/m² | - |
| 1778179294 | 13.89° C | 54% | 1011.1 hPa | 0 mm | - | 697 W/m² | - |
| 1778178990 | 15° C | 51% | 1011.1 hPa | 0 mm | - | 191 W/m² | - |
| 1778178687 | 15° C | 49% | 1011.3 hPa | 0 mm | - | 185 W/m² | - |
| 1778178384 | 15° C | 48% | 1011.2 hPa | 0 mm | - | 812 W/m² | - |
| 1778178080 | 15.56° C | 46% | 1011.2 hPa | 0 mm | - | 736 W/m² | - |
| 1778177777 | 15° C | 46% | 1011.4 hPa | 0 mm | - | 796 W/m² | - |
| 1778177473 | 15° C | 45% | 1011.3 hPa | 0 mm | - | 671 W/m² | - |
| 1778177169 | 15° C | 48% | 1011.3 hPa | 0 mm | - | 577 W/m² | - |
| 1778176867 | 15° C | 46% | 1011.3 hPa | 0 mm | - | 505 W/m² | - |
| 1778176563 | 15° C | 48% | 1011.4 hPa | 0 mm | - | 520 W/m² | - |
| 1778176260 | 15° C | 45% | 1011.6 hPa | 0 mm | - | 346 W/m² | - |
| 1778175957 | 15.56° C | 41% | 1011.4 hPa | 0 mm | - | 343 W/m² | - |
| 1778175655 | 15° C | 43% | 1011.8 hPa | 0 mm | - | 386 W/m² | - |
| 1778175352 | 15.56° C | 43% | 1011.5 hPa | 0 mm | - | 206 W/m² | - |
| 1778175049 | 16.11° C | 41% | 1011.8 hPa | 0 mm | - | 625 W/m² | - |
| 1778174744 | 15.56° C | 43% | 1011.6 hPa | 0 mm | - | 652 W/m² | - |
| 1778174442 | 15° C | 43% | 1012.1 hPa | 0 mm | - | 661 W/m² | - |
| 1778174137 | 15° C | 46% | 1012.4 hPa | 0 mm | - | 541 W/m² | - |
| 1778173835 | 14.44° C | 44% | 1012.3 hPa | 0 mm | - | 390 W/m² | - |
| 1778173531 | 14.44° C | 45% | 1012.8 hPa | 0 mm | - | 404 W/m² | - |
| 1778173228 | 14.44° C | 44% | 1012.5 hPa | 0 mm | - | 525 W/m² | - |
* Rain latest hour (hover to see other rain measurements)
** Current wind speed in m/s (hover to see current wind gust speed)